Regional Weather Roundup
Issued by NWS Kansas City/Pleasant Hill, MO

Home | Current Version | Previous Version | Text Only | Print | Product List | Glossary On
Versions: 1 2 3 4 5 6 7 8 9 10 11 12 13 14 15 16 17 18 19 20 21 22 23 24 25 26 27 28 29 30 31 32 33 34 35 36 37 38 39 40 41 42 43 44 45 46 47 48 49 50
000
ASUS43 KEAX 201704
RWREAX

WEATHER ROUNDUP FOR EASTERN KANSAS AND NORTHWEST MISSOURI
NATIONAL WEATHER SERVICE KANSAS CITY/PLEASANT HILL MO
1100 AM CST SAT DEC 20 2014

KSZ040-057-103>105-MOZ028-029-037-043-201800-
...KANSAS CITY METROPOLITAN AREA...

CITY           SKY/WX    TMP DP  RH WIND       PRES   REMARKS
K.C. INTL      CLOUDY    37  33  85 S12       30.17S WCI  29
K.C. DOWNTOWN  PTSUNNY   40  34  79 S8        30.19F WCI  34
LEES SUMMIT    CLOUDY    37  33  85 S9        30.19F WCI  30
OLATHE - IXD   SUNNY     40  35  83 S10       30.17F WCI  33
OLATHE - OJC   SUNNY     39  35  86 S10       30.17F WCI  32
LAWRENCE       SUNNY     42  34  73 S10       30.17F

$$

MOZ001>008-011>017-020>025-030>033-038>040-044>046-053-054-201800-
...NORTHERN AND CENTRAL MISSOURI...

CITY           SKY/WX    TMP DP  RH WIND       PRES   REMARKS
ST. JOSEPH     CLOUDY    37  33  85 S9        30.17S WCI  30
MOSBY          CLOUDY    36  34  93 SE8       30.20F WCI  29
WARRENSBURG    CLOUDY    36  32  87 SW9       30.21F WCI  29
WHITEMAN AFB   CLOUDY    37  34  89 SW9       30.21F WCI  31
CLINTON        CLOUDY    39  37  93 SW8       30.22F WCI  34
SEDALIA        CLOUDY    38  35  89 SW9       30.23S WCI  31
WARSAW         NOT AVBL
MARSHALL       CLOUDY    39  37  93 SW12      30.23F WCI  32
CHILLICOTHE      N/A     36  33  89 S7        30.22F WCI  30
KIRKSVILLE     CLOUDY    36  36 100 S8        30.21F FOG     WCI  30

$$

MOZ041-047>049-056>058-063>065-088>090-097-201800-
...EASTERN AND SOUTHERN MISSOURI...

CITY           SKY/WX    TMP DP  RH WIND       PRES   REMARKS
ST. LOUIS INTL CLOUDY    39  31  72 S3        30.28F HAZE
SPIRIT OF STL  CLOUDY    39  32  76 S3        30.27F
COLUMBIA       CLOUDY    39  36  89 S8        30.23S WCI  33
JEFFERSON CITY CLOUDY    40  35  83 S6        30.25F
MEXICO         CLOUDY   N/A N/A N/A S6        30.24S HAZE
HANNIBAL       CLOUDY    37  32  81 S6        30.24  HAZE    WCI  33
ROLLA          CLOUDY    38  34  85 S6        30.22F WCI  33
LEBANON        CLOUDY    41  36  81 S5        30.23F
OSAGE BEACH    CLOUDY    41  36  81 S5        30.23F
SPRINGFIELD    CLOUDY    39  37  92 SW6       30.22F WCI  35
BRANSON        FOG       41  39  93 CALM      30.25S VSB 1
NEVADA         CLOUDY    37  34  87 SW8       30.24S WCI  31
JOPLIN         PTSUNNY   40  33  76 SW5       30.24F
WEST PLAINS    CLOUDY    38  34  85 S5        30.26S WCI  34

$$

IAZ060-094-KSZ022-034>040-054-083-096-NEZ052-066-093-201800-
...KANSAS...SOUTHEAST NEBRASKA AND IOWA...

CITY           SKY/WX    TMP DP  RH WIND       PRES   REMARKS
TOPEKA         SUNNY     42  35  76 SW9       30.16S
MANHATTAN      SUNNY     42  36  79 SW13      30.13S
EMPORIA        MOSUNNY   39  35  86 S14       30.15F WCI  31
CHANUTE        MOSUNNY   42  34  73 S13       30.20F
WICHITA        MOSUNNY   44  37  76 S13       30.16S
OMAHA          CLOUDY    33  31  92 S7        30.14S FOG     WCI  27
LINCOLN        CLOUDY    33  31  92 CALM      30.12F FOG
FALLS CITY     CLOUDY    33  30  88 S7        30.14S WCI  27
LAMONI         CLOUDY    32  31  96 S7        30.17S FOG     WCI  26
DES MOINES     CLOUDY    34  30  85 S6        30.18S FOG     WCI  29

$$




USA.gov is the U.S. government's official web portal to all federal, state and local government web resources and services.